Regional Weather Roundup
Issued by NWS

Home | Current Version | Previous Version | Text Only | Print | Product List | Glossary Off
Versions: 1 2 3 4 5 6 7 8 9 10 11 12 13 14 15 16 17 18 19 20 21 22 23 24 25 26 27 28 29 30 31 32 33 34 35 36 37 38 39 40 41 42 43 44 45 46 47 48 49 50

000
ASUS43 KLSX 201557
RWRMO

WEATHER SUMMARY FOR MISSOURI
NATIONAL WEATHER SERVICE SPRINGFIELD MO
1100 AM CDT WED SEP 20 2017

NOTE: "FAIR" INDICATES FEW OR NO CLOUDS BELOW 12,000 FEET WITH NO
       SIGNIFICANT WEATHER AND/OR OBSTRUCTIONS TO VISIBILITY.
       CURRENT SKY AND/OR WEATHER CONDITIONS ARE NOT AVAILABLE FOR
       CHILLICOTHE AND FARMINGTON.

MOZ001>031-035>038-043-044-053-054-201700-
...NORTHERN AND WESTERN MISSOURI...

CITY           SKY/WX    TMP DP  RH WIND       PRES   REMARKS
KANSAS CTY INT MOSUNNY   82  72  71 SW18G28   29.80R
ST JOSEPH      MOSUNNY   83  72  69 SW12G21   29.78R
CHILLICOTHE      N/A     82  73  74 S13       29.82R

$$
MOZ066>068-077>081-088>096-101>105-201700-
...SOUTHWEST MISSOURI...

CITY           SKY/WX    TMP DP  RH WIND       PRES   REMARKS
SPRINGFIELD    SUNNY     84  74  71 S14       29.91S HX  91
JOPLIN         SUNNY     85  75  72 S21G28    29.88R HX  93
BRANSON        MOSUNNY   86  72  62 SW8       29.95S HX  92

$$
MOZ032>034-039>042-045>050-055>058-069>072-201700-
...CENTRAL MISSOURI...

CITY           SKY/WX    TMP DP  RH WIND       PRES   REMARKS
COLUMBIA       NOT AVBL
JEFFERSON CITY SUNNY     83  71  67 S9        29.88S
ROLLA          SUNNY     85  72  65 SW14      29.94S HX  91
SEDALIA        SUNNY     85  74  69 S18G24    29.87S HX  92
WARRENSBURG    MOSUNNY   81  70  69 S14       29.83F

$$
MOZ051-052-059>065-201700-
...EAST CENTRAL MISSOURI...

CITY           SKY/WX    TMP DP  RH WIND       PRES   REMARKS
ST LOUIS INTL  PTSUNNY   85  72  65 S13       29.93R HX  91

$$
MOZ072>076-082>087-097>100-106>115-201700-
...SOUTH CENTRAL AND SOUTHEAST MISSOURI...

CITY           SKY/WX    TMP DP  RH WIND       PRES   REMARKS
CAPE GIRARDEAU SUNNY     86  72  62 SW10      29.97F HX  92
POPLAR BLUFF   MOSUNNY   86  74  67 S14       29.97S HX  94
WEST PLAINS    SUNNY     84  71  65 S13       29.98R

$$


USA.gov is the U.S. government's official web portal to all federal, state and local government web resources and services.